Location: Marne
(34.0056°N, 117.9064°W)
Time: 04:42:54
(UTC+00:00)

Cosmos 724 - Pass Details

Date: 18 January 2020
Orbit: 864 x 931 km, 65.6° (Epoch: 17 February)

Event Time Altitude Azimuth Distance (km) Brightness Sun altitude
Rises 02:16:41 0° 201° (SSW) 3,528 8.0 -14.4°
Reaches altitude 10° 02:19:12 10° 200° (SSW) 2,580 7.2 -14.9°
Maximum altitude 02:25:11 76° 116° (ESE) 924 4.2 -16.1°
Enters shadow 02:30:03 16° 32° (NNE) 2,167 5.9 -17.0°
